Date String (YYYY-MM-DD hh:mm:ss) UTC,Instrument flags,absolute air pressure of the measurement (hPa),sample flow rate (lpm),inlet stack bypass flow (lpm),air temperature of the measurement (°C),ambient temperature measured by the external sensor (°C),aerosol sample conditioner tube jacket temperature (°C),OPC LED temperature (°C),internal box temperature (°C),relative humidity of the measurement (%),span deviation,mass concentration of particles derived from Lorenz-Mie calculation of OPC scattering (μg/m³),mass concentration of particles derived from Lorenz-Mie calculation of OPC scattering (μg/m³),mass concentration of particles derived from Lorenz-Mie calculation of OPC scattering (μg/m³)
DateTimeUTC,F1_M11,P_M11,Q1_M11,Q2_M11,T1_M11,T2_M11,T3_M11,T4_M11,T5_M11,U1_M11,ZSPAN_M11,X2_M11,X0_M11,X1_M11
2024-01-14 08:00:00,SystemResetWarning,0822.7,4.99,000.00,019.2,019.4,000.0,027.4,021.0,3.8,0000.0,0004.57,0007.67,0004.13
2024-01-14 08:01:00,SystemResetWarning,0822.7,4.99,000.00,019.2,019.2,000.0,027.4,020.5,3.8,0000.0,0004.54,0007.62,0004.10
2024-01-14 08:02:00,SystemResetWarning,0822.7,5.01,000.00,019.1,018.9,000.0,027.4,020.2,3.8,0000.0,0004.52,0007.59,0004.09
2024-01-14 08:03:00,SystemResetWarning,0822.7,5.01,000.00,019.0,018.5,000.0,027.4,020.0,3.8,0000.0,0004.50,0007.54,0004.05
2024-01-14 08:04:00,SystemResetWarning,0822.8,5.00,000.00,019.0,018.3,000.0,027.4,020.0,3.8,0000.0,0004.52,0007.69,0004.05
2024-01-14 08:05:00,SystemResetWarning,0822.7,5.00,000.00,019.0,018.0,000.0,027.4,020.0,3.9,0000.0,0004.46,0007.56,0004.02
2024-01-14 08:06:00,SystemResetWarning,0822.6,4.99,000.00,018.9,017.9,000.0,027.4,020.0,3.9,0000.0,0004.46,0007.56,0004.01
2024-01-14 08:07:00,SystemResetWarning,0823.0,4.99,000.00,019.0,018.2,000.0,027.4,020.5,3.9,0000.0,0004.42,0007.49,0003.98
2024-01-14 08:08:00,SystemResetWarning,0822.7,5.01,000.00,019.1,018.9,000.0,027.4,020.9,3.9,0000.0,0004.39,0007.45,0003.96
2024-01-14 08:09:00,SystemResetWarning,0822.8,5.00,000.00,019.2,019.1,000.0,027.4,020.7,3.8,0001.9,0004.37,0007.38,0003.93
2024-01-14 08:10:00,SystemResetWarning,0822.8,5.00,000.00,019.1,018.9,000.0,027.4,020.3,3.9,0002.9,0004.33,0007.30,0003.90
2024-01-14 08:11:00,SystemResetWarning,0823.2,4.99,000.00,019.0,018.6,000.0,027.3,020.1,3.9,0003.1,0004.35,0007.38,0003.88
2024-01-14 08:12:00,SystemResetWarning,0822.7,5.00,000.00,019.0,018.4,000.0,027.4,020.0,3.9,0003.1,0004.35,0007.42,0003.87
2024-01-14 08:13:00,SystemResetWarning,0822.8,5.00,000.00,018.9,018.1,000.0,027.4,020.0,3.9,0002.1,0004.33,0007.39,0003.86
2024-01-14 08:14:00,SystemResetWarning,0822.7,5.00,000.00,018.9,018.0,000.0,027.4,020.0,3.9,0000.7,0004.29,0007.32,0003.85
2024-01-14 08:15:00,SystemResetWarning,0823.1,5.00,000.00,018.9,018.0,000.0,027.4,020.2,3.9,0003.0,0004.26,0007.15,0003.82
2024-01-14 08:16:00,SystemResetWarning,0822.8,5.02,000.00,019.0,018.5,000.0,027.4,020.7,3.9,0002.3,0004.23,0007.01,0003.80
2024-01-14 08:17:00,SystemResetWarning,0823.0,5.01,000.00,019.1,019.1,000.0,027.4,020.8,3.9,0002.9,0004.21,0006.94,0003.79
2024-01-14 08:18:00,SystemResetWarning,0822.9,4.99,000.00,019.2,019.0,000.0,027.4,020.5,3.9,0002.9,0004.20,0006.90,0003.79
2024-01-14 08:19:00,SystemResetWarning,0822.5,4.99,000.00,019.1,018.7,000.0,027.3,020.2,3.9,0002.3,0004.20,0006.94,0003.78
2024-01-14 08:20:00,SystemResetWarning,0822.6,5.01,000.00,019.0,018.4,000.0,027.3,020.0,3.9,0000.0,0004.20,0007.07,0003.77
2024-01-14 08:21:00,SystemResetWarning,0822.7,5.01,000.00,018.9,018.2,000.0,027.3,020.0,3.9,0000.0,0004.19,0007.14,0003.76
2024-01-14 08:22:00,SystemResetWarning,0822.7,5.01,000.00,018.9,018.0,000.0,027.4,020.0,3.9,0000.0,0004.16,0007.08,0003.75
2024-01-14 08:23:00,SystemResetWarning,0822.8,5.00,000.00,018.9,017.9,000.0,027.4,020.0,4.0,0000.0,0004.15,0007.49,0003.73
2024-01-14 08:24:00,SystemResetWarning,0822.7,5.00,000.00,019.0,018.2,000.0,027.3,020.4,3.9,0000.0,0004.14,0007.65,0003.71
2024-01-14 08:25:00,SystemResetWarning,0822.9,5.00,000.00,019.1,018.9,000.0,027.4,020.9,3.9,0000.0,0004.13,0007.67,0003.68
2024-01-14 08:26:00,SystemResetWarning,0822.8,5.00,000.00,019.2,019.4,000.0,027.4,021.1,3.9,0000.0,0004.11,0007.70,0003.65
2024-01-14 08:27:00,SystemResetWarning,0822.7,5.00,000.00,019.2,019.3,000.0,027.4,020.6,3.9,0000.0,0004.10,0007.68,0003.63
2024-01-14 08:28:00,SystemResetWarning,0822.7,4.99,000.00,019.2,019.0,000.0,027.4,020.2,3.9,0000.0,0004.09,0007.71,0003.61
2024-01-14 08:29:00,SystemResetWarning,0822.6,4.99,000.00,019.1,018.6,000.0,027.4,020.0,3.9,0000.0,0004.10,0007.85,0003.58
2024-01-14 08:30:00,SystemResetWarning,0822.7,5.00,000.00,019.0,018.3,000.0,027.4,020.0,3.9,0000.0,0004.10,0008.38,0003.57
2024-01-14 08:31:00,SystemResetWarning,0822.8,5.00,000.00,018.9,018.0,000.0,027.4,020.0,4.0,0000.0,0004.05,0008.32,0003.54
2024-01-14 08:32:00,SystemResetWarning,0822.8,5.00,000.00,018.9,017.8,000.0,027.4,020.0,4.0,0000.0,0004.00,0008.22,0003.52
2024-01-14 08:33:00,SystemResetWarning,0823.0,5.00,000.00,018.9,017.8,000.0,027.4,020.1,4.0,0000.0,0003.96,0008.14,0003.50
2024-01-14 08:34:00,SystemResetWarning,0823.1,5.02,000.00,019.0,018.4,000.0,027.4,020.6,3.9,0000.0,0003.96,0007.92,0003.50
2024-01-14 08:35:00,SystemResetWarning,0823.4,5.00,000.00,019.1,019.0,000.0,027.4,020.9,3.9,0000.0,0003.95,0007.74,0003.49
2024-01-14 08:36:00,SystemResetWarning,0823.1,4.99,000.00,019.1,018.9,000.0,027.4,020.5,3.9,0000.0,0003.93,0007.67,0003.49
2024-01-14 08:37:00,SystemResetWarning,0822.8,4.99,000.00,019.0,018.7,000.0,027.3,020.1,3.9,0000.0,0003.90,0007.55,0003.50
2024-01-14 08:38:00,SystemResetWarning,0822.6,5.01,000.00,019.0,018.4,000.0,027.4,020.0,3.9,0000.0,0003.90,0007.53,0003.50
2024-01-14 08:39:00,SystemResetWarning,0822.9,5.01,000.00,018.9,018.2,000.0,027.4,020.0,3.9,0000.0,0003.91,0007.49,0003.51
2024-01-14 08:40:00,SystemResetWarning,0823.1,5.01,000.00,018.9,018.0,000.0,027.4,020.0,3.9,0000.0,0003.90,0007.43,0003.53
2024-01-14 08:41:00,SystemResetWarning,0822.9,5.00,000.00,018.9,017.9,000.0,027.4,020.1,3.9,0000.0,0003.88,0006.50,0003.55
2024-01-14 08:42:00,SystemResetWarning,0822.7,5.00,000.00,019.0,018.4,000.0,027.4,020.6,3.9,0000.0,0003.93,0006.60,0003.57
2024-01-14 08:43:00,SystemResetWarning,0822.7,5.00,000.00,019.1,019.0,000.0,027.4,020.8,3.9,0000.0,0003.97,0006.67,0003.59
2024-01-14 08:44:00,SystemResetWarning,0823.1,4.99,000.00,019.1,019.0,000.0,027.4,020.5,3.9,0000.0,0003.99,0007.21,0003.61
2024-01-14 08:45:00,SystemResetWarning,0822.9,4.99,000.00,019.1,018.7,000.0,027.3,020.2,3.9,0000.0,0003.99,0007.15,0003.61
2024-01-14 08:46:00,SystemResetWarning,0823.0,4.99,000.00,019.0,018.5,000.0,027.3,020.0,3.9,0000.0,0003.99,0007.23,0003.62
2024-01-14 08:47:00,SystemResetWarning,0823.0,5.01,000.00,018.9,018.2,000.0,027.4,020.0,3.9,0000.0,0004.01,0007.26,0003.65
2024-01-14 08:48:00,SystemResetWarning,0823.0,5.00,000.00,018.9,018.0,000.0,027.4,020.0,3.9,0000.0,0004.04,0007.32,0003.67
2024-01-14 08:49:00,SystemResetWarning,0822.9,5.00,000.00,018.9,017.9,000.0,027.4,020.0,3.9,0000.5,0004.04,0007.34,0003.68
2024-01-14 08:50:00,SystemResetWarning,0823.2,5.00,000.00,018.9,018.1,000.0,027.4,020.3,3.9,0000.0,0004.04,0007.37,0003.67
2024-01-14 08:51:00,SystemResetWarning,0823.0,5.01,000.00,019.0,018.8,000.0,027.3,020.8,3.9,0002.2,0004.02,0007.47,0003.66
2024-01-14 08:52:00,SystemResetWarning,0823.2,4.99,000.00,019.2,019.4,000.0,027.4,021.0,3.9,0000.7,0004.00,0007.56,0003.64
2024-01-14 08:53:00,SystemResetWarning,0823.0,4.99,000.00,019.2,019.3,000.0,027.4,020.7,3.9,0001.6,0003.96,0007.44,0003.62
2024-01-14 08:54:00,SystemResetWarning,0823.0,5.00,000.00,019.2,019.0,000.0,027.4,020.3,3.9,0000.4,0003.92,0007.38,0003.61
2024-01-14 08:55:00,SystemResetWarning,0823.1,5.00,000.00,019.1,018.7,000.0,027.4,020.0,3.9,0000.0,0003.90,0007.40,0003.59
2024-01-14 08:56:00,SystemResetWarning,0823.3,5.00,000.00,019.0,018.4,000.0,027.4,020.0,3.9,0000.0,0003.91,0007.64,0003.58
2024-01-14 08:57:00,SystemResetWarning,0823.0,5.00,000.00,019.0,018.1,000.0,027.4,020.0,3.9,0000.0,0003.91,0007.98,0003.57
2024-01-14 08:58:00,SystemResetWarning,0823.1,4.99,000.00,018.9,017.9,000.0,027.4,020.0,3.9,0000.0,0003.88,0007.95,0003.54
2024-01-14 08:59:00,SystemResetWarning,0823.2,5.00,000.00,018.9,017.8,000.0,027.4,020.1,3.9,0000.0,0003.86,0007.93,0003.52
